DW3201 Weather Reports


Display with metric or nautical units.
time (UTC)temp
F
wind
direction
speed
MPH
gust
MPH
rain 1hr
in
rain 24hr
in
rain mn
in
humidity
%
barometer
mb
20260508094600 31 0 0.0 0.0 0.00 0.00 0.00 93 1010.2
20260508093102 32 0 0.0 0.0 0.00 0.00 0.00 93 1010.2
20260508091557 32 0 0.0 0.0 0.00 0.00 0.00 92 1010.3
20260508090108 33 0 0.0 0.0 0.00 0.00 0.00 93 1010.4
20260508084552 33 0 0.0 1.0 0.00 0.00 0.00 93 1010.5
20260508083055 33 277 0.0 0.0 0.00 0.00 0.00 92 1010.5
20260508081559 33 0 0.0 0.0 0.00 0.00 0.00 92 1010.4
20260508080054 33 0 0.0 0.0 0.00 0.00 0.00 91 1010.5
20260508074555 33 277 1.0 1.0 0.00 0.00 0.00 90 1010.6
20260508073058 34 271 0.0 1.0 0.00 0.00 0.00 92 1010.7
20260508071554 34 277 0.0 1.0 0.00 0.00 0.00 90 1010.8
20260508070054 35 0 0.0 1.0 0.00 0.00 0.00 89 1010.8
20260508064556 35 264 0.0 1.0 0.00 0.00 0.00 87 1011.0
20260508063055 35 0 0.0 1.0 0.00 0.00 0.00 87 1011.1
20260508061606 35 0 0.0 1.0 0.00 0.00 0.00 86 1011.3
20260508060057 36 263 0.0 1.0 0.00 0.00 0.00 86 1011.5
20260508054635 36 0 0.0 1.0 0.00 0.00 0.00 84 1011.3
20260508053052 37 0 0.0 1.0 0.00 0.00 0.00 83 1011.4
20260508051552 37 0 0.0 1.0 0.00 0.00 0.00 83 1011.4
20260508050057 37 0 0.0 1.0 0.00 0.00 0.00 83 1011.3
20260508044559 38 0 0.0 1.0 0.00 0.00 0.00 81 1011.2
20260508043052 38 0 0.0 0.0 0.00 0.00 0.00 80 1011.0
20260508041559 39 0 0.0 0.0 0.00 0.00 0.00 80 1010.9
20260508040058 40 0 0.0 0.0 0.00 0.00 0.00 77 1010.8
20260508034600 41 0 0.0 1.0 0.00 0.00 0.00 75 1010.6
20260508033052 42 45 2.0 3.0 0.00 0.00 0.00 76 1010.7
20260508031600 42 112 1.0 4.0 0.00 0.00 0.00 75 1010.4
20260508030112 42 75 1.0 5.0 0.00 0.00 0.00 73 1010.3
20260508024605 43 97 3.0 6.0 0.00 0.00 0.00 71 1010.3
20260508023055 44 94 4.0 7.0 0.00 0.00 0.00 71 1010.3
20260508021614 45 83 3.0 8.0 0.00 0.00 0.00 71 1010.1
20260508020054 46 103 4.0 9.0 0.00 0.00 0.00 71 1009.9
20260508014602 47 72 4.0 7.0 0.00 0.00 0.00 68 1009.7
20260508013106 47 49 2.0 5.0 0.00 0.00 0.00 67 1009.4
20260508011601 48 75 5.0 9.0 0.00 0.00 0.00 65 1009.3
20260508010057 49 68 4.0 6.0 0.00 0.00 0.00 66 1009.2
20260508004558 50 69 3.0 7.0 0.00 0.00 0.00 64 1008.9
20260508003103 50 63 7.0 11.0 0.00 0.00 0.00 64 1008.6
20260508001554 51 88 8.0 11.0 0.00 0.00 0.00 64 1008.6
20260508000053 51 87 9.0 16.0 0.00 0.00 0.00 64 1008.6
20260507234553 52 103 7.0 10.0 0.00 0.00 0.00 60 1008.4
20260507233056 52 68 7.0 9.0 0.00 0.00 0.00 60 1008.4
20260507231557 52 43 5.0 11.0 0.00 0.00 0.00 57 1008.5
20260507230049 52 71 4.0 6.0 0.00 0.00 0.00 56 1008.3
20260507224601 51 86 6.0 11.0 0.00 0.00 0.00 57 1008.4
20260507223052 51 86 5.0 11.0 0.00 0.00 0.00 55 1008.4
20260507221556 51 75 4.0 10.0 0.00 0.00 0.00 56 1008.7
20260507220057 51 88 5.0 9.0 0.00 0.00 0.00 54 1008.7
20260507214558 51 70 7.0 10.0 0.00 0.00 0.00 55 1008.7
20260507213056 51 94 7.0 13.0 0.00 0.00 0.00 56 1008.7
20260507211554 51 108 10.0 17.0 0.00 0.00 0.00 53 1008.7
20260507210116 51 89 11.0 16.0 0.00 0.00 0.00 53 1008.9
20260507204600 53 82 14.0 19.0 0.00 0.00 0.00 51 1008.8
20260507203058 56 59 0.0 4.0 0.00 0.00 0.00 47 1008.8
20260507201554 54 0 1.0 7.0 0.00 0.00 0.00 47 1008.8
20260507200108 54 9 0.0 8.0 0.00 0.00 0.00 53 1009.2
20260507194557 54 235 1.0 6.0 0.00 0.00 0.00 48 1009.8
20260507193131 56 285 2.0 8.0 0.00 0.00 0.00 41 1009.4
20260507191600 58 249 3.0 8.0 0.00 0.00 0.00 36 1009.3
20260507190058 58 248 6.0 15.0 0.00 0.00 0.00 34 1009.1
20260507184558 58 245 7.0 16.0 0.00 0.00 0.00 35 1009.5
20260507183103 57 249 6.0 15.0 0.00 0.00 0.00 36 1009.7
20260507181556 56 221 2.0 12.0 0.00 0.00 0.00 37 1010.1
20260507180057 56 242 5.0 9.0 0.00 0.00 0.00 37 1010.3
20260507174608 55 240 4.0 9.0 0.00 0.00 0.00 38 1010.6
20260507173131 55 226 4.0 8.0 0.00 0.00 0.00 37 1010.8
20260507171601 56 262 3.0 11.0 0.00 0.00 0.00 36 1011.1
20260507170055 56 280 4.0 13.0 0.00 0.00 0.00 36 1011.4
20260507164605 56 131 1.0 6.0 0.00 0.00 0.00 40 1011.5
20260507163058 54 251 1.0 6.0 0.00 0.00 0.00 38 1011.8
20260507161616 54 174 2.0 6.0 0.00 0.00 0.00 40 1011.9
20260507160118 53 101 1.0 7.0 0.00 0.00 0.00 40 1012.2
20260507154600 51 77 1.0 5.0 0.00 0.00 0.00 44 1012.5
20260507153055 51 104 2.0 5.0 0.00 0.00 0.00 45 1012.7
20260507151553 50 256 1.0 8.0 0.00 0.00 0.00 45 1012.9
20260507150059 48 240 4.0 8.0 0.00 0.00 0.00 45 1013.2
20260507144600 48 261 2.0 5.0 0.00 0.00 0.00 46 1013.5
20260507143100 46 259 3.0 7.0 0.00 0.00 0.00 48 1013.7
20260507141605 45 264 1.0 7.0 0.00 0.00 0.00 51 1014.1
20260507140101 44 255 3.0 6.0 0.00 0.00 0.00 52 1014.3
20260507134603 44 232 4.0 6.0 0.00 0.00 0.00 53 1014.4
20260507133052 43 242 1.0 4.0 0.00 0.00 0.00 59 1014.4
20260507131556 41 252 2.0 4.0 0.00 0.00 0.00 63 1014.5
20260507130053 39 283 1.0 4.0 0.00 0.00 0.00 66 1014.5
20260507124554 39 240 2.0 5.0 0.00 0.00 0.00 70 1014.4
20260507123055 36 273 0.0 2.0 0.00 0.00 0.00 76 1014.3
20260507121557 34 0 0.0 0.0 0.00 0.00 0.00 81 1014.2
20260507120053 34 0 0.0 1.0 0.00 0.00 0.00 80 1014.0
20260507114559 33 266 0.0 1.0 0.00 0.00 0.00 82 1013.9
20260507113055 33 0 0.0 0.0 0.00 0.00 0.00 81 1013.8
20260507111559 32 0 0.0 3.0 0.00 0.00 0.00 79 1013.7
20260507110055 31 279 1.0 3.0 0.00 0.00 0.00 82 1013.6
20260507104554 30 0 0.0 0.0 0.00 0.00 0.00 85 1013.5
20260507103053 30 0 0.0 0.0 0.00 0.00 0.00 86 1013.5
20260507101611 30 0 0.0 0.0 0.00 0.00 0.00 88 1013.5
20260507100055 30 269 0.0 0.0 0.00 0.00 0.00 87 1013.5